Aurora, OR

12:34 PM PDT on May 26, 2017 (GMT -0700)
Aurora State

Weather History for KUAO - June, 2013

Change the Weather History Date:

Saturday, June 8, 2013

  Actual Average Record
Temperature  
Mean Temperature 64 °F -  
Max Temperature 79 °F - 94 °F (2015)
Min Temperature 48 °F - 43 °F (2002)
Degree Days  
Heating Degree Days 1    
Month to date heating degree days 11  
Since 1 June heating degree days 11  
Since 1 July heating degree days 4278  
Cooling Degree Days 0    
Month to date cooling degree days 15  
Year to date cooling degree days 30  
Since 1 June cooling degree days 15  
Growing Degree Days 14 (Base 50)    
Moisture  
Dew Point 46 °F    
Average Humidity 61    
Maximum Humidity 93    
Minimum Humidity 28    
Precipitation  
Precipitation 0.00 in - 0.69 in (2004)
Month to date precipitation T  
Year to date precipitation 11.97  
Sea Level Pressure  
Sea Level Pressure 30.13 in    
Wind  
Wind Speed 5 mph (NNE)    
Max Wind Speed 10 mph    
Max Gust Speed 14 mph    
Visibility 10 miles    
Events      
T = Trace of Precipitation, MM = Missing Value Source: NWS Daily Summary

Daily Weather History Graph

Daily Weather History Graph

Search for Another Location

Airport or City:

Trip Planner

Search our weather history database for the weather conditions in past years. The results will help you decide how hot, cold, wet, or windy it might be!

Date:

Astronomy

Jun. 08, 2013 Rise Set
Actual Time 5:23 AM PDT 8:57 PM PDT
Civil Twilight 4:46 AM PDT 9:34 PM PDT
Nautical Twilight 3:57 AM PDT 10:23 PM PDT
Astronomical Twilight 2:52 AM PDT 11:28 PM PDT
Moon 5:38 AM PDT (6/8) 9:00 PM PDT (6/8)
Length of Visible Light 16h 48m
Length of Day
15h 33m
New Moon, 0% of the Moon is Illuminated
Jun 8
New Moon
Jun 16
First Quarter
Jun 23
Full
Jun 29
Last Quarter
Jul 8
New

Hourly Weather History & Observations

Time (PDT) Temp. Dew Point Humidity Pressure Visibility Wind Dir Wind Speed Gust Speed Precip Events Conditions
12:53 AM 55.0 °F 48.0 °F 77% 30.17 in 10.0 mi North 5.8 mph - N/A   Clear
1:53 AM 53.1 °F 46.9 °F 80% 30.17 in 10.0 mi North 4.6 mph - N/A   Clear
2:53 AM 52.0 °F 46.9 °F 83% 30.17 in 10.0 mi North 4.6 mph - N/A   Clear
3:53 AM 52.0 °F 46.9 °F 83% 30.17 in 10.0 mi Calm Calm - N/A   Clear
4:53 AM 50.0 °F 46.0 °F 86% 30.17 in 10.0 mi NNE 5.8 mph - N/A   Clear
5:53 AM 48.9 °F 46.0 °F 90% 30.18 in 10.0 mi NNE 4.6 mph - N/A   Clear
6:53 AM 52.0 °F 48.0 °F 86% 30.19 in 10.0 mi North 4.6 mph - N/A   Clear
7:53 AM 55.9 °F 46.9 °F 72% 30.19 in 10.0 mi NE 8.1 mph - N/A   Clear
8:53 AM 57.9 °F 46.9 °F 67% 30.19 in 10.0 mi North 5.8 mph - N/A   Clear
9:53 AM 60.1 °F 46.9 °F 62% 30.18 in 10.0 mi Calm Calm - N/A   Clear
10:53 AM 64.9 °F 46.9 °F 52% 30.16 in 10.0 mi ENE 5.8 mph - N/A   Clear
11:53 AM 68.0 °F 45.0 °F 43% 30.15 in 10.0 mi Variable 3.5 mph - N/A   Clear
12:53 PM 72.0 °F 41.0 °F 33% 30.14 in 10.0 mi Variable 3.5 mph - N/A   Clear
1:53 PM 73.0 °F 43.0 °F 34% 30.13 in 10.0 mi Variable 3.5 mph - N/A   Clear
2:53 PM 75.9 °F 44.1 °F 32% 30.11 in 10.0 mi Variable 4.6 mph - N/A   Clear
3:53 PM 77.0 °F 45.0 °F 32% 30.10 in 10.0 mi NNE 5.8 mph - N/A   Clear
4:53 PM 79.0 °F 43.0 °F 28% 30.09 in 10.0 mi NE 4.6 mph - N/A   Clear
5:53 PM 79.0 °F 44.1 °F 29% 30.07 in 10.0 mi Calm Calm - N/A   Clear
6:53 PM 79.0 °F 46.0 °F 31% 30.06 in 10.0 mi NE 5.8 mph - N/A   Clear
7:53 PM 75.9 °F 50.0 °F 40% 30.06 in 10.0 mi NE 8.1 mph - N/A   Clear
8:53 PM 71.1 °F 50.0 °F 47% 30.06 in 10.0 mi NE 5.8 mph - N/A   Clear
9:53 PM 66.0 °F 51.1 °F 59% 30.07 in 10.0 mi North 3.5 mph - N/A   Clear
10:53 PM 63.0 °F 46.9 °F 56% 30.08 in 10.0 mi North 8.1 mph - N/A   Clear
11:53 PM 60.1 °F 46.9 °F 62% 30.08 in 10.0 mi North 6.9 mph - N/A   Clear